sat.trackr.live / text

‹ back to catalog

STARLINK-31991

NORAD 59963 · 2024-107U

PAYLOAD ACTIVE UNKNOWN

§ Identity

Operator
Country
US
Launch date
2024-06-05
Launch site
AFETR
Launch vehicle
Mass (kg)
RCS (m²)

Purposes: comms

External: N2YO · Heavens-Above · Gunter

§ Orbital elements

Epoch: 2026-09-21T08:07:15.530880Z

Period
93.85 min
Inclination
53.1596°
Eccentricity
0.0001507
Mean motion
15.34392081 rev/d
Perigee alt
461.7 km
Apogee alt
463.8 km
Semi-major
6,840.9 km
B*
1.8158e-5
RAAN
233.7498°
Arg perigee
87.6733°
Mean anomaly
272.4442°
Rev number
12,979

§ Raw data

STARLINK-319911 59963U 24107U   26264.33837420  .00000237  00000+0  18158-4 0  99942 59963  53.1596 233.7498 0001507  87.6733 272.4442 15.34392081129795

JSON: /api/v1/satellites/59963 · /tle

For live sub-satellite position, see the globe view (requires WebGL).

§ Visibility from observer

Set your observer location to see the next 7 days of passes ≥ 10°. The values pass through the URL so the page stays shareable.

No JS? Fill the form by hand. The geolocation button needs JavaScript.